Year,Month,Day,Hour,Minute,Value (Times are PST for windspeed in km/hr)
2016,03,09,00,00,10.40
2016,03,09,00,01,6.40
2016,03,09,00,02,11.70
2016,03,09,00,03,8.90
2016,03,09,00,04,9.00
2016,03,09,00,05,13.70
2016,03,09,00,06,11.20
2016,03,09,00,07,11.80
2016,03,09,00,08,13.70
2016,03,09,00,09,10.20
2016,03,09,00,10,11.70
2016,03,09,00,11,13.20
2016,03,09,00,12,11.50
2016,03,09,00,13,8.90
2016,03,09,00,14,12.90
2016,03,09,00,15,14.80
2016,03,09,00,16,8.60
2016,03,09,00,17,11.60
2016,03,09,00,18,9.50
2016,03,09,00,19,8.30
2016,03,09,00,20,11.70
2016,03,09,00,21,8.20
2016,03,09,00,22,11.60
2016,03,09,00,23,10.70
2016,03,09,00,24,10.80
2016,03,09,00,25,11.60
2016,03,09,00,26,13.60
2016,03,09,00,27,9.50
2016,03,09,00,28,10.70
2016,03,09,00,29,13.70
2016,03,09,00,30,9.20
2016,03,09,00,31,13.50
2016,03,09,00,32,12.90
2016,03,09,00,33,13.30
2016,03,09,00,34,11.40
2016,03,09,00,35,11.20
2016,03,09,00,36,10.30
2016,03,09,00,37,16.60
2016,03,09,00,38,13.40
2016,03,09,00,39,15.40
2016,03,09,00,40,11.60
2016,03,09,00,41,16.10
2016,03,09,00,42,14.60
2016,03,09,00,43,10.20
2016,03,09,00,44,8.90
2016,03,09,00,45,13.40
2016,03,09,00,46,12.20
2016,03,09,00,47,9.00
2016,03,09,00,48,12.20
2016,03,09,00,49,11.60
2016,03,09,00,50,11.30
2016,03,09,00,51,11.60
2016,03,09,00,52,15.30
2016,03,09,00,53,9.50
2016,03,09,00,54,11.30
2016,03,09,00,55,10.10
2016,03,09,00,56,11.00
2016,03,09,00,57,9.20
2016,03,09,00,58,14.20
2016,03,09,00,59,14.10
2016,03,09,01,00,17.30
2016,03,09,01,01,11.40
2016,03,09,01,02,11.90
2016,03,09,01,03,12.80
2016,03,09,01,04,12.80
2016,03,09,01,05,14.40
2016,03,09,01,06,15.70
2016,03,09,01,07,14.80
2016,03,09,01,08,11.30
2016,03,09,01,09,14.20
2016,03,09,01,10,6.80
2016,03,09,01,11,9.10
2016,03,09,01,12,9.90
2016,03,09,01,13,8.50
2016,03,09,01,14,9.50
2016,03,09,01,15,13.30
2016,03,09,01,16,20.70
2016,03,09,01,17,12.40
2016,03,09,01,18,13.50
2016,03,09,01,19,9.50
2016,03,09,01,20,15.00
2016,03,09,01,21,10.00
2016,03,09,01,22,6.40
2016,03,09,01,23,7.60
2016,03,09,01,24,9.50
2016,03,09,01,25,9.80
2016,03,09,01,26,10.00
2016,03,09,01,27,7.00
2016,03,09,01,28,15.10
2016,03,09,01,29,17.50
2016,03,09,01,30,10.40
2016,03,09,01,31,9.90
2016,03,09,01,32,10.40
2016,03,09,01,33,12.90
2016,03,09,01,34,16.30
2016,03,09,01,35,11.60
2016,03,09,01,36,11.80
2016,03,09,01,37,15.30
2016,03,09,01,38,11.10
2016,03,09,01,39,18.20
2016,03,09,01,40,17.60
2016,03,09,01,41,10.60
2016,03,09,01,42,8.10
2016,03,09,01,43,6.20
2016,03,09,01,44,15.80
2016,03,09,01,45,11.70
2016,03,09,01,46,6.00
2016,03,09,01,47,9.20
2016,03,09,01,48,11.50
2016,03,09,01,49,9.20
2016,03,09,01,50,8.40
2016,03,09,01,51,5.20
2016,03,09,01,52,8.10
2016,03,09,01,53,10.40
2016,03,09,01,54,9.80
2016,03,09,01,55,6.90
2016,03,09,01,56,6.80
2016,03,09,01,57,10.10
2016,03,09,01,58,10.30
2016,03,09,01,59,8.70
2016,03,09,02,00,13.00
2016,03,09,02,01,12.80
2016,03,09,02,02,14.70
2016,03,09,02,03,13.40
2016,03,09,02,04,12.80
2016,03,09,02,05,12.10
2016,03,09,02,06,12.80
2016,03,09,02,07,10.80
2016,03,09,02,08,11.30
2016,03,09,02,09,13.20
2016,03,09,02,10,11.50
2016,03,09,02,11,13.20
2016,03,09,02,12,13.10
2016,03,09,02,13,14.50
2016,03,09,02,14,13.60
2016,03,09,02,15,8.90
2016,03,09,02,16,10.90
2016,03,09,02,17,12.60
2016,03,09,02,18,13.90
2016,03,09,02,19,12.50
2016,03,09,02,20,11.60
2016,03,09,02,21,11.20
2016,03,09,02,22,12.90
2016,03,09,02,23,17.50
2016,03,09,02,24,12.80
2016,03,09,02,25,12.10
2016,03,09,02,26,13.20
2016,03,09,02,27,13.80
2016,03,09,02,28,9.20
2016,03,09,02,29,9.20
2016,03,09,02,30,6.00
2016,03,09,02,31,5.50
2016,03,09,02,32,6.90
2016,03,09,02,33,11.40
2016,03,09,02,34,10.20
2016,03,09,02,35,9.10
2016,03,09,02,36,12.10
2016,03,09,02,37,12.20
2016,03,09,02,38,9.70
2016,03,09,02,39,7.40
2016,03,09,02,40,6.10
2016,03,09,02,41,7.50
2016,03,09,02,42,7.00
2016,03,09,02,43,6.50
2016,03,09,02,44,11.60
2016,03,09,02,45,8.80
2016,03,09,02,46,10.70
2016,03,09,02,47,8.90
2016,03,09,02,48,11.00
2016,03,09,02,49,8.60
2016,03,09,02,50,10.80
2016,03,09,02,51,7.60
2016,03,09,02,52,7.60
2016,03,09,02,53,7.90
2016,03,09,02,54,5.70
2016,03,09,02,55,13.70
2016,03,09,02,56,9.80
2016,03,09,02,57,12.10
2016,03,09,02,58,14.30
2016,03,09,02,59,10.90
2016,03,09,03,00,10.70
2016,03,09,03,01,7.70
2016,03,09,03,02,8.30
2016,03,09,03,03,12.30
2016,03,09,03,04,11.70
2016,03,09,03,05,11.30
2016,03,09,03,06,10.70
2016,03,09,03,07,12.80
2016,03,09,03,08,9.40
2016,03,09,03,09,5.50
2016,03,09,03,10,2.90
2016,03,09,03,11,9.90
2016,03,09,03,12,15.60
2016,03,09,03,13,12.50
2016,03,09,03,14,9.50
2016,03,09,03,15,11.70
2016,03,09,03,16,13.50
2016,03,09,03,17,8.60
2016,03,09,03,18,8.50
2016,03,09,03,19,17.20
2016,03,09,03,20,15.60
2016,03,09,03,21,12.20
2016,03,09,03,22,16.30
2016,03,09,03,23,15.20
2016,03,09,03,24,12.00
2016,03,09,03,25,18.10
2016,03,09,03,26,15.80
2016,03,09,03,27,17.60
2016,03,09,03,28,20.90
2016,03,09,03,29,15.60
2016,03,09,03,30,17.70
2016,03,09,03,31,17.50
2016,03,09,03,32,19.10
2016,03,09,03,33,16.40
2016,03,09,03,34,17.20
2016,03,09,03,35,17.20
2016,03,09,03,36,20.80
2016,03,09,03,37,23.60
2016,03,09,03,38,21.20
2016,03,09,03,39,17.20
2016,03,09,03,40,17.70
2016,03,09,03,41,16.00
2016,03,09,03,42,15.70
2016,03,09,03,43,17.80
2016,03,09,03,44,16.30
2016,03,09,03,45,18.50
2016,03,09,03,46,19.70
2016,03,09,03,47,15.60
2016,03,09,03,48,19.40
2016,03,09,03,49,23.10
2016,03,09,03,50,22.10
2016,03,09,03,51,19.80
2016,03,09,03,52,18.30
2016,03,09,03,53,19.10
2016,03,09,03,54,18.60
2016,03,09,03,55,20.10
2016,03,09,03,56,21.30
2016,03,09,03,57,23.00
2016,03,09,03,58,17.20
2016,03,09,03,59,21.20
2016,03,09,04,00,22.10
2016,03,09,04,01,16.40
2016,03,09,04,02,19.30
2016,03,09,04,03,16.90
2016,03,09,04,04,18.80
2016,03,09,04,05,17.20
2016,03,09,04,06,22.50
2016,03,09,04,07,19.30
2016,03,09,04,08,20.10
2016,03,09,04,09,16.60
2016,03,09,04,10,20.30
2016,03,09,04,11,19.50
2016,03,09,04,12,16.20
2016,03,09,04,13,27.10
2016,03,09,04,14,20.10
2016,03,09,04,15,22.20
2016,03,09,04,16,24.40
2016,03,09,04,17,20.10
2016,03,09,04,18,21.80
2016,03,09,04,19,19.70
2016,03,09,04,20,23.70
2016,03,09,04,21,17.60
2016,03,09,04,22,23.10
2016,03,09,04,23,17.70
2016,03,09,04,24,20.20
2016,03,09,04,25,16.60
2016,03,09,04,26,20.10
2016,03,09,04,27,20.70
2016,03,09,04,28,20.50
2016,03,09,04,29,19.40
2016,03,09,04,30,18.40
2016,03,09,04,31,17.90
2016,03,09,04,32,17.50
2016,03,09,04,33,17.20
2016,03,09,04,34,17.20
2016,03,09,04,35,20.80
2016,03,09,04,36,15.00
2016,03,09,04,37,16.90
2016,03,09,04,38,18.70
2016,03,09,04,39,18.30
2016,03,09,04,40,24.60
2016,03,09,04,41,20.70
2016,03,09,04,42,23.20
2016,03,09,04,43,22.80
2016,03,09,04,44,17.60
2016,03,09,04,45,21.90
2016,03,09,04,46,26.80
2016,03,09,04,47,25.50
2016,03,09,04,48,18.40
2016,03,09,04,49,15.10
2016,03,09,04,50,14.60
2016,03,09,04,51,18.20
2016,03,09,04,52,26.50
2016,03,09,04,53,20.80
2016,03,09,04,54,21.80
2016,03,09,04,55,20.20
2016,03,09,04,56,25.10
2016,03,09,04,57,23.80
2016,03,09,04,58,30.10
2016,03,09,04,59,22.70
2016,03,09,05,00,22.60
2016,03,09,05,01,20.20
2016,03,09,05,02,15.20
2016,03,09,05,03,12.50
2016,03,09,05,04,17.20
2016,03,09,05,05,18.20
2016,03,09,05,06,23.70
2016,03,09,05,07,16.80
2016,03,09,05,08,18.10
2016,03,09,05,09,16.70
2016,03,09,05,10,18.00
2016,03,09,05,11,21.90
2016,03,09,05,12,22.90
2016,03,09,05,13,20.50
2016,03,09,05,14,22.50
2016,03,09,05,15,18.70
2016,03,09,05,16,28.00
2016,03,09,05,17,25.30
2016,03,09,05,18,23.50
2016,03,09,05,19,28.60
2016,03,09,05,20,22.20
2016,03,09,05,21,23.00
2016,03,09,05,22,21.70
2016,03,09,05,23,18.50
2016,03,09,05,24,14.20
2016,03,09,05,25,12.20
2016,03,09,05,26,19.90
2016,03,09,05,27,15.10
2016,03,09,05,28,13.20
2016,03,09,05,29,15.00
2016,03,09,05,30,17.20
2016,03,09,05,31,15.10
2016,03,09,05,32,20.70
2016,03,09,05,33,18.80
2016,03,09,05,34,20.30
2016,03,09,05,35,16.10
2016,03,09,05,36,15.90
2016,03,09,05,37,20.20
2016,03,09,05,38,25.70
2016,03,09,05,39,22.00
2016,03,09,05,40,16.90
2016,03,09,05,41,18.00
2016,03,09,05,42,12.00
2016,03,09,05,43,13.70
2016,03,09,05,44,13.90
2016,03,09,05,45,15.10
2016,03,09,05,46,15.50
2016,03,09,05,47,13.80
2016,03,09,05,48,16.50
2016,03,09,05,49,16.30
2016,03,09,05,50,21.20
2016,03,09,05,51,14.20
2016,03,09,05,52,13.90
2016,03,09,05,53,24.40
2016,03,09,05,54,17.70
2016,03,09,05,55,17.00
2016,03,09,05,56,18.30
2016,03,09,05,57,18.50
2016,03,09,05,58,20.30
2016,03,09,05,59,24.00
2016,03,09,06,00,22.50
2016,03,09,06,01,16.20
2016,03,09,06,02,23.40
2016,03,09,06,03,23.50
2016,03,09,06,04,21.30
2016,03,09,06,05,20.60
2016,03,09,06,06,20.70
2016,03,09,06,07,16.30
2016,03,09,06,08,23.10
2016,03,09,06,09,19.40
2016,03,09,06,10,13.20
2016,03,09,06,11,17.30
2016,03,09,06,12,16.30
2016,03,09,06,13,27.70
2016,03,09,06,14,14.80
2016,03,09,06,15,16.00
2016,03,09,06,16,23.80
2016,03,09,06,17,21.20
2016,03,09,06,18,26.20
2016,03,09,06,19,22.50
2016,03,09,06,20,24.10
2016,03,09,06,21,20.30
2016,03,09,06,22,17.00
2016,03,09,06,23,21.90
2016,03,09,06,24,17.70
2016,03,09,06,25,19.00
2016,03,09,06,26,15.90
2016,03,09,06,27,19.80
2016,03,09,06,28,16.80
2016,03,09,06,29,12.30
2016,03,09,06,30,15.10
2016,03,09,06,31,19.60
2016,03,09,06,32,23.30
2016,03,09,06,33,20.10
2016,03,09,06,34,24.10
2016,03,09,06,35,23.80
2016,03,09,06,36,20.00
2016,03,09,06,37,15.60
2016,03,09,06,38,15.10
2016,03,09,06,39,15.90
2016,03,09,06,40,23.40
2016,03,09,06,41,18.40
2016,03,09,06,42,16.20
2016,03,09,06,43,24.70
2016,03,09,06,44,18.50
2016,03,09,06,45,20.60
2016,03,09,06,46,21.70
2016,03,09,06,47,23.00
2016,03,09,06,48,20.60
2016,03,09,06,49,20.60
2016,03,09,06,50,25.70
2016,03,09,06,51,20.40
2016,03,09,06,52,27.10
2016,03,09,06,53,28.20
2016,03,09,06,54,22.20
2016,03,09,06,55,23.60
2016,03,09,06,56,24.90
2016,03,09,06,57,24.30
2016,03,09,06,58,24.60
2016,03,09,06,59,22.40
2016,03,09,07,00,25.60
2016,03,09,07,01,24.40
2016,03,09,07,02,21.60
2016,03,09,07,03,23.30
2016,03,09,07,04,22.60
2016,03,09,07,05,22.70
2016,03,09,07,06,22.50
2016,03,09,07,07,23.90
2016,03,09,07,08,24.90
2016,03,09,07,09,25.20
2016,03,09,07,10,22.60
2016,03,09,07,11,23.20
2016,03,09,07,12,23.10
2016,03,09,07,13,22.90
2016,03,09,07,14,22.80
2016,03,09,07,15,24.70
2016,03,09,07,16,24.20
2016,03,09,07,17,28.40
2016,03,09,07,18,28.20
2016,03,09,07,19,22.20
2016,03,09,07,20,26.80
2016,03,09,07,21,28.70
2016,03,09,07,22,28.50
2016,03,09,07,23,25.20
2016,03,09,07,24,24.70
2016,03,09,07,25,24.70
2016,03,09,07,26,23.30
2016,03,09,07,27,23.30
2016,03,09,07,28,22.50
2016,03,09,07,29,20.40
2016,03,09,07,30,22.10
2016,03,09,07,31,22.20
2016,03,09,07,32,26.30
2016,03,09,07,33,21.00
2016,03,09,07,34,24.70
2016,03,09,07,35,27.90
2016,03,09,07,36,27.20
2016,03,09,07,37,19.80
2016,03,09,07,38,20.60
2016,03,09,07,39,22.90
2016,03,09,07,40,22.00
2016,03,09,07,41,21.50
2016,03,09,07,42,17.70
2016,03,09,07,43,23.60
2016,03,09,07,44,27.90
2016,03,09,07,45,21.90
2016,03,09,07,46,25.00
2016,03,09,07,47,21.30
2016,03,09,07,48,28.30
2016,03,09,07,49,22.20
2016,03,09,07,50,22.50
2016,03,09,07,51,23.60
2016,03,09,07,52,25.90
2016,03,09,07,53,26.60
2016,03,09,07,54,23.60
2016,03,09,07,55,22.60
2016,03,09,07,56,20.00
2016,03,09,07,57,21.30
2016,03,09,07,58,21.70
2016,03,09,07,59,22.60
2016,03,09,08,00,18.00
2016,03,09,08,01,23.80
2016,03,09,08,02,24.70
2016,03,09,08,03,21.80
2016,03,09,08,04,19.10
2016,03,09,08,05,23.50
2016,03,09,08,06,21.60
2016,03,09,08,07,24.00
2016,03,09,08,08,21.20
2016,03,09,08,09,25.70
2016,03,09,08,10,20.30
2016,03,09,08,11,19.70
2016,03,09,08,12,22.70
2016,03,09,08,13,22.20
2016,03,09,08,14,26.80
2016,03,09,08,15,22.10
2016,03,09,08,16,21.40
2016,03,09,08,17,19.10
2016,03,09,08,18,20.80
2016,03,09,08,19,20.10
2016,03,09,08,20,16.70
2016,03,09,08,21,16.70
2016,03,09,08,22,24.10
2016,03,09,08,23,23.10
2016,03,09,08,24,21.30
2016,03,09,08,25,25.00
2016,03,09,08,26,26.00
2016,03,09,08,27,28.70
2016,03,09,08,28,25.00
2016,03,09,08,29,21.60
2016,03,09,08,30,24.00
2016,03,09,08,31,20.90
2016,03,09,08,32,22.00
2016,03,09,08,33,26.90
2016,03,09,08,34,22.40
2016,03,09,08,35,25.30
2016,03,09,08,36,21.80
2016,03,09,08,37,26.40
2016,03,09,08,38,21.90
2016,03,09,08,39,26.00
2016,03,09,08,40,22.20
2016,03,09,08,41,21.20
2016,03,09,08,42,27.10
2016,03,09,08,43,17.50
2016,03,09,08,44,22.00
2016,03,09,08,45,25.50
2016,03,09,08,46,23.70
2016,03,09,08,47,24.30
2016,03,09,08,48,25.20
2016,03,09,08,49,25.00
2016,03,09,08,50,29.10
2016,03,09,08,51,26.60
2016,03,09,08,52,25.30
2016,03,09,08,53,25.40
2016,03,09,08,54,21.00
2016,03,09,08,55,20.10
2016,03,09,08,56,25.60
2016,03,09,08,57,23.40
2016,03,09,08,58,21.00
2016,03,09,08,59,21.00
2016,03,09,09,00,29.10
2016,03,09,09,01,18.80
2016,03,09,09,02,18.20
2016,03,09,09,03,22.00
2016,03,09,09,04,22.00
2016,03,09,09,05,24.90
2016,03,09,09,06,23.10
2016,03,09,09,07,20.30
2016,03,09,09,08,21.20
2016,03,09,09,09,20.60
2016,03,09,09,10,21.30
2016,03,09,09,11,24.90
2016,03,09,09,12,21.10
2016,03,09,09,13,20.70
2016,03,09,09,14,20.10
2016,03,09,09,15,14.50
2016,03,09,09,16,20.30
2016,03,09,09,17,21.60
2016,03,09,09,18,25.00
2016,03,09,09,19,16.30
2016,03,09,09,20,17.20
2016,03,09,09,21,19.00
2016,03,09,09,22,20.80
2016,03,09,09,23,24.60
2016,03,09,09,24,12.50
2016,03,09,09,25,23.70
2016,03,09,09,26,25.80
2016,03,09,09,27,20.70
2016,03,09,09,28,17.90
2016,03,09,09,29,23.20
2016,03,09,09,30,24.70
2016,03,09,09,31,23.60
2016,03,09,09,32,21.60
2016,03,09,09,33,26.80
2016,03,09,09,34,25.90
2016,03,09,09,35,20.60
2016,03,09,09,36,20.20
2016,03,09,09,37,21.90
2016,03,09,09,38,22.00
2016,03,09,09,39,26.80
2016,03,09,09,40,21.60
2016,03,09,09,41,27.90
2016,03,09,09,42,23.60
2016,03,09,09,43,22.40
2016,03,09,09,44,24.90
2016,03,09,09,45,24.20
2016,03,09,09,46,24.60
2016,03,09,09,47,25.30
2016,03,09,09,48,24.10
2016,03,09,09,49,26.60
2016,03,09,09,50,22.90
2016,03,09,09,51,23.90
2016,03,09,09,52,23.40
2016,03,09,09,53,21.60
2016,03,09,09,54,17.60
2016,03,09,09,55,21.10
2016,03,09,09,56,23.20
2016,03,09,09,57,25.90
2016,03,09,09,58,19.50
2016,03,09,09,59,22.30
2016,03,09,10,00,22.70
2016,03,09,10,01,26.60
2016,03,09,10,02,21.20
2016,03,09,10,03,23.10
2016,03,09,10,04,19.00
2016,03,09,10,05,22.10
2016,03,09,10,06,24.10
2016,03,09,10,07,25.40
2016,03,09,10,08,21.80
2016,03,09,10,09,24.80
2016,03,09,10,10,22.40
2016,03,09,10,11,23.50
2016,03,09,10,12,21.50
2016,03,09,10,13,22.90
2016,03,09,10,14,23.20
2016,03,09,10,15,20.70
2016,03,09,10,16,28.60
2016,03,09,10,17,19.60
2016,03,09,10,18,14.50
2016,03,09,10,19,9.60
2016,03,09,10,20,9.60
2016,03,09,10,21,9.60
2016,03,09,10,22,9.60
2016,03,09,10,23,9.60
2016,03,09,10,24,9.60
2016,03,09,10,25,9.60
2016,03,09,10,26,9.60
2016,03,09,10,27,9.60
2016,03,09,13,51,6.70
2016,03,09,13,52,5.70
2016,03,09,13,53,13.40
2016,03,09,13,54,8.50
2016,03,09,13,55,7.40
2016,03,09,13,56,8.60
2016,03,09,13,57,6.40
2016,03,09,13,58,6.10
2016,03,09,13,59,5.70
2016,03,09,14,00,5.20
2016,03,09,14,01,6.90
2016,03,09,14,02,6.30
2016,03,09,14,03,10.30
2016,03,09,14,04,5.20
2016,03,09,14,05,4.20
2016,03,09,14,06,8.40
2016,03,09,14,07,6.70
2016,03,09,14,08,5.60
2016,03,09,14,09,5.00
2016,03,09,14,10,5.80
2016,03,09,14,11,5.80
2016,03,09,14,12,5.90
2016,03,09,14,13,9.10
2016,03,09,14,14,10.60
2016,03,09,14,15,8.80
2016,03,09,14,16,5.80
2016,03,09,14,17,4.90
2016,03,09,14,18,10.00
2016,03,09,14,19,8.90
2016,03,09,14,20,8.70
2016,03,09,14,21,9.70
2016,03,09,14,22,5.70
2016,03,09,14,23,8.60
2016,03,09,14,24,8.50
2016,03,09,14,25,10.50
2016,03,09,14,26,6.40
2016,03,09,14,27,9.20
2016,03,09,14,28,6.70
2016,03,09,14,29,6.40
2016,03,09,14,30,9.40
2016,03,09,14,31,8.90
2016,03,09,14,32,9.20
2016,03,09,14,33,11.70
2016,03,09,14,34,11.90
2016,03,09,14,35,9.20
2016,03,09,14,36,12.60
2016,03,09,14,37,9.50
2016,03,09,14,38,11.40
2016,03,09,14,39,9.40
2016,03,09,14,40,6.70
2016,03,09,14,41,11.10
2016,03,09,14,42,5.50
2016,03,09,14,43,11.30
2016,03,09,14,44,12.20
2016,03,09,14,45,10.20
2016,03,09,14,46,8.40
2016,03,09,14,47,9.10
2016,03,09,14,48,7.50
2016,03,09,14,49,6.20
2016,03,09,14,50,4.30
2016,03,09,14,51,3.70
2016,03,09,14,52,8.50
2016,03,09,14,53,8.50
2016,03,09,14,54,6.80
2016,03,09,14,55,8.40
2016,03,09,14,56,8.60
2016,03,09,14,57,8.20
2016,03,09,14,58,8.40
2016,03,09,14,59,11.00
2016,03,09,15,00,7.90
2016,03,09,15,01,12.70
2016,03,09,15,02,11.10
2016,03,09,15,03,9.50
2016,03,09,15,04,11.20
2016,03,09,15,05,8.50
2016,03,09,15,06,6.90
2016,03,09,15,07,10.70
2016,03,09,15,08,12.20
2016,03,09,15,09,10.80
2016,03,09,15,10,8.90
2016,03,09,15,11,9.20
2016,03,09,15,12,5.50
2016,03,09,15,13,9.40
2016,03,09,15,14,10.60
2016,03,09,15,15,13.70
2016,03,09,15,16,8.10
2016,03,09,15,17,8.80
2016,03,09,15,18,7.00
2016,03,09,15,19,11.90
2016,03,09,15,20,14.10
2016,03,09,15,21,9.50
2016,03,09,15,22,11.00
2016,03,09,15,23,12.40
2016,03,09,15,24,15.40
2016,03,09,15,25,10.70
2016,03,09,15,26,8.10
2016,03,09,15,27,10.40
2016,03,09,15,28,11.50
2016,03,09,15,29,7.90
2016,03,09,15,30,11.70
2016,03,09,15,31,11.10
2016,03,09,15,32,9.50
2016,03,09,15,33,7.10
2016,03,09,15,34,7.50
2016,03,09,15,35,13.90
2016,03,09,15,36,15.50
2016,03,09,15,37,12.80
2016,03,09,15,38,12.10
2016,03,09,15,39,12.40
2016,03,09,15,40,16.60
2016,03,09,15,41,18.40
2016,03,09,15,42,14.90
2016,03,09,15,43,15.60
2016,03,09,15,44,13.30
2016,03,09,15,45,17.70
2016,03,09,15,46,16.50
2016,03,09,15,47,10.30
2016,03,09,15,48,14.20
2016,03,09,15,49,13.80
2016,03,09,15,50,16.30
2016,03,09,15,51,13.30
2016,03,09,15,52,11.40
2016,03,09,15,53,18.10
2016,03,09,15,54,20.30
2016,03,09,15,55,18.10
2016,03,09,15,56,19.90
2016,03,09,15,57,17.20
2016,03,09,15,58,23.90
2016,03,09,15,59,18.70
2016,03,09,16,00,16.10
2016,03,09,16,01,20.00
2016,03,09,16,02,18.20
2016,03,09,16,03,22.10
2016,03,09,16,04,24.80
2016,03,09,16,05,28.60
2016,03,09,16,06,26.80
2016,03,09,16,07,27.30
2016,03,09,16,08,22.80
2016,03,09,16,09,25.60
2016,03,09,16,10,25.90
2016,03,09,16,11,21.70
2016,03,09,16,12,26.20
2016,03,09,16,13,24.60
2016,03,09,16,14,31.40
2016,03,09,16,15,30.20
2016,03,09,16,16,30.50
2016,03,09,16,17,27.10
2016,03,09,16,18,32.10
2016,03,09,16,19,28.60
2016,03,09,16,20,30.30
2016,03,09,16,21,35.10
2016,03,09,16,22,28.90
2016,03,09,16,23,25.40
2016,03,09,16,24,24.30
2016,03,09,16,25,26.30
2016,03,09,16,26,21.80
2016,03,09,16,27,28.50
2016,03,09,16,28,29.30
2016,03,09,16,29,29.30
2016,03,09,16,30,27.20
2016,03,09,16,31,30.20
2016,03,09,16,32,32.30
2016,03,09,16,33,33.40
2016,03,09,16,34,31.70
2016,03,09,16,35,21.40
2016,03,09,16,36,27.30
2016,03,09,16,37,28.10
2016,03,09,16,38,26.60
2016,03,09,16,39,23.40
2016,03,09,16,40,29.10
2016,03,09,16,41,28.70
2016,03,09,16,42,21.80
2016,03,09,16,43,20.80
2016,03,09,16,44,21.80
2016,03,09,16,45,30.60
2016,03,09,16,46,32.70
2016,03,09,16,47,30.50
2016,03,09,16,48,33.10
2016,03,09,16,49,30.30
2016,03,09,16,50,32.10
2016,03,09,16,51,38.00
2016,03,09,16,52,28.70
2016,03,09,16,53,19.20
2016,03,09,16,54,30.10
2016,03,09,16,55,31.90
2016,03,09,16,56,31.50
2016,03,09,16,57,26.20
2016,03,09,16,58,26.20
2016,03,09,16,59,26.30
2016,03,09,17,00,19.60
2016,03,09,17,01,21.70
2016,03,09,17,02,21.20
2016,03,09,17,03,25.20
2016,03,09,17,04,21.90
2016,03,09,17,05,25.20
2016,03,09,17,06,34.00
2016,03,09,17,07,30.40
2016,03,09,17,08,33.60
2016,03,09,17,09,26.90
2016,03,09,17,10,20.00
2016,03,09,17,11,19.70
2016,03,09,17,12,21.40
2016,03,09,17,13,23.60
2016,03,09,17,14,23.90
2016,03,09,17,15,29.90
2016,03,09,17,16,26.00
2016,03,09,17,17,22.30
2016,03,09,17,18,24.30
2016,03,09,17,19,28.20
2016,03,09,17,20,17.60
2016,03,09,17,21,18.70
2016,03,09,17,22,26.80
2016,03,09,17,23,24.90
2016,03,09,17,24,25.90
2016,03,09,17,25,25.60
2016,03,09,17,26,26.40
2016,03,09,17,27,25.90
2016,03,09,17,28,28.00
2016,03,09,17,29,26.10
2016,03,09,17,30,19.10
2016,03,09,17,31,28.80
2016,03,09,17,32,26.10
2016,03,09,17,33,25.90
2016,03,09,17,34,27.50
2016,03,09,17,35,25.40
2016,03,09,17,36,29.30
2016,03,09,17,37,25.40
2016,03,09,17,38,31.60
2016,03,09,17,39,25.90
2016,03,09,17,40,26.50
2016,03,09,17,41,25.20
2016,03,09,17,42,24.10
2016,03,09,17,43,21.90
2016,03,09,17,44,24.70
2016,03,09,17,45,22.10
2016,03,09,17,46,21.50
2016,03,09,17,47,28.00
2016,03,09,17,48,22.60
2016,03,09,17,49,26.70
2016,03,09,17,50,25.80
2016,03,09,17,51,27.50
2016,03,09,17,52,31.50
2016,03,09,17,53,32.00
2016,03,09,17,54,28.10
2016,03,09,17,55,20.90
2016,03,09,17,56,24.60
2016,03,09,17,57,24.90
2016,03,09,17,58,26.80
2016,03,09,17,59,23.60
2016,03,09,18,00,24.70
2016,03,09,18,01,17.50
2016,03,09,18,02,15.60
2016,03,09,18,03,19.30
2016,03,09,18,04,21.80
2016,03,09,18,05,25.00
2016,03,09,18,06,22.10
2016,03,09,18,07,27.70
2016,03,09,18,08,22.90
2016,03,09,18,09,26.10
2016,03,09,18,10,22.50
2016,03,09,18,11,16.50
2016,03,09,18,12,21.00
2016,03,09,18,13,24.80
2016,03,09,18,14,22.10
2016,03,09,18,15,22.90
2016,03,09,18,16,22.00
2016,03,09,18,17,22.70
2016,03,09,18,18,18.20
2016,03,09,18,19,18.80
2016,03,09,18,20,22.60
2016,03,09,18,21,22.40
2016,03,09,18,22,24.00
2016,03,09,18,23,17.60
2016,03,09,18,24,23.50
2016,03,09,18,25,20.70
2016,03,09,18,26,26.60
2016,03,09,18,27,24.70
2016,03,09,18,28,21.30
2016,03,09,18,29,22.50
2016,03,09,18,30,22.40
2016,03,09,18,31,17.60
2016,03,09,18,32,16.40
2016,03,09,18,33,17.20
2016,03,09,18,34,17.70
2016,03,09,18,35,18.50
2016,03,09,18,36,19.30
2016,03,09,18,37,19.40
2016,03,09,18,38,20.90
2016,03,09,18,39,21.40
2016,03,09,18,40,20.90
2016,03,09,18,41,19.50
2016,03,09,18,42,16.60
2016,03,09,18,43,16.40
2016,03,09,18,44,20.60
2016,03,09,18,45,19.00
2016,03,09,18,46,23.80
2016,03,09,18,47,13.40
2016,03,09,18,48,14.80
2016,03,09,18,49,8.70
2016,03,09,18,50,12.30
2016,03,09,18,51,11.80
2016,03,09,18,52,12.10
2016,03,09,18,53,13.30
2016,03,09,18,54,10.60
2016,03,09,18,55,14.10
2016,03,09,18,56,12.60
2016,03,09,18,57,10.40
2016,03,09,18,58,16.30
2016,03,09,18,59,15.30
2016,03,09,19,00,20.20
2016,03,09,19,01,15.90
2016,03,09,19,02,15.30
2016,03,09,19,03,19.00
2016,03,09,19,04,18.60
2016,03,09,19,05,16.50
2016,03,09,19,06,13.80
2016,03,09,19,07,13.70
2016,03,09,19,08,16.20
2016,03,09,19,09,19.10
2016,03,09,19,10,9.70
2016,03,09,19,11,16.40
2016,03,09,19,12,18.60
2016,03,09,19,13,16.00
2016,03,09,19,14,13.20
2016,03,09,19,15,7.70
2016,03,09,19,16,11.60
2016,03,09,19,17,16.00
2016,03,09,19,18,14.20
2016,03,09,19,19,14.00
2016,03,09,19,20,12.90
2016,03,09,19,21,15.00
2016,03,09,19,22,18.50
2016,03,09,19,23,18.60
2016,03,09,19,24,19.10
2016,03,09,19,25,16.40
2016,03,09,19,26,14.30
2016,03,09,19,27,19.70
2016,03,09,19,28,12.80
2016,03,09,19,29,13.30
2016,03,09,19,30,15.20
2016,03,09,19,31,14.20
2016,03,09,19,32,16.20
2016,03,09,19,33,19.10
2016,03,09,19,34,13.90
2016,03,09,19,35,18.60
2016,03,09,19,36,14.50
2016,03,09,19,37,14.30
2016,03,09,19,38,14.40
2016,03,09,19,39,15.30
2016,03,09,19,40,12.90
2016,03,09,19,41,13.20
2016,03,09,19,42,8.60
2016,03,09,19,43,6.80
2016,03,09,19,44,8.40
2016,03,09,19,45,7.60
2016,03,09,19,46,8.10
2016,03,09,19,47,7.30
2016,03,09,19,48,9.10
2016,03,09,19,49,9.80
2016,03,09,19,50,8.70
2016,03,09,19,51,7.00
2016,03,09,19,52,10.30
2016,03,09,19,53,6.70
2016,03,09,19,54,9.50
2016,03,09,19,55,10.10
2016,03,09,19,56,8.90
2016,03,09,19,57,11.10
2016,03,09,19,58,10.20
2016,03,09,19,59,10.30
2016,03,09,20,00,10.40
2016,03,09,20,01,8.20
2016,03,09,20,02,10.70
2016,03,09,20,03,11.80
2016,03,09,20,04,11.80
2016,03,09,20,05,8.50
2016,03,09,20,06,8.20
2016,03,09,20,07,9.00
2016,03,09,20,08,9.10
2016,03,09,20,09,11.70
2016,03,09,20,10,6.20
2016,03,09,20,11,9.20
2016,03,09,20,12,8.60
2016,03,09,20,13,5.50
2016,03,09,20,14,9.10
2016,03,09,20,15,7.00
2016,03,09,20,16,6.60
2016,03,09,20,17,7.40
2016,03,09,20,18,8.80
2016,03,09,20,19,10.30
2016,03,09,20,20,9.80
2016,03,09,20,21,7.30
2016,03,09,20,22,5.30
2016,03,09,20,23,5.80
2016,03,09,20,24,6.00
2016,03,09,20,25,4.00
2016,03,09,20,26,5.70
2016,03,09,20,27,8.10
2016,03,09,20,28,5.90
2016,03,09,20,29,6.70
2016,03,09,20,30,5.50
2016,03,09,20,31,7.20
2016,03,09,20,32,7.10
2016,03,09,20,33,4.10
2016,03,09,20,34,6.70
2016,03,09,20,35,6.60
2016,03,09,20,36,6.10
2016,03,09,20,37,5.80
2016,03,09,20,38,6.90
2016,03,09,20,39,6.00
2016,03,09,20,40,4.00
2016,03,09,20,41,7.90
2016,03,09,20,42,6.30
2016,03,09,20,43,9.30
2016,03,09,20,44,6.50
2016,03,09,20,45,5.00
2016,03,09,20,46,6.70
2016,03,09,20,47,5.30
2016,03,09,20,48,5.30
2016,03,09,20,49,7.10
2016,03,09,20,50,7.50
2016,03,09,20,51,5.90